TimeCST,TemperatureF,Dew PointF,Humidity,Sea Level PressureIn,VisibilityMPH,Wind Direction,Wind SpeedMPH,Gust SpeedMPH,PrecipitationIn,Events,Conditions,WindDirDegrees,DateUTC
12:13 AM,35.6,28.4,75,30.10,10.0,WNW,3.5,-,N/A,,Overcast,290,2013-11-06 06:13:00
12:34 AM,35.6,28.4,75,30.10,10.0,WNW,3.5,-,N/A,,Overcast,290,2013-11-06 06:34:00
12:54 AM,35.6,28.4,75,30.10,10.0,WNW,3.5,-,N/A,,Mostly Cloudy,290,2013-11-06 06:54:00
1:13 AM,35.6,28.4,75,30.09,10.0,WNW,4.6,-,N/A,,Scattered Clouds,290,2013-11-06 07:13:00
1:34 AM,35.6,28.4,75,30.10,10.0,West,3.5,-,N/A,,Clear,280,2013-11-06 07:34:00
1:54 AM,35.6,28.4,75,30.10,10.0,WNW,5.8,-,N/A,,Unknown,300,2013-11-06 07:54:00
2:14 AM,33.8,28.4,81,30.11,10.0,NW,5.8,-,N/A,,Unknown,310,2013-11-06 08:14:00
2:34 AM,33.8,28.4,81,30.10,10.0,NW,4.6,-,N/A,,Clear,310,2013-11-06 08:34:00
2:53 AM,33.8,26.6,75,30.10,10.0,WNW,4.6,-,N/A,,Clear,300,2013-11-06 08:53:00
3:14 AM,30.2,26.6,86,30.10,10.0,WNW,4.6,-,N/A,,Clear,290,2013-11-06 09:14:00
3:34 AM,32.0,26.6,80,30.10,10.0,WNW,4.6,-,N/A,,Clear,300,2013-11-06 09:34:00
3:53 AM,30.2,26.6,86,30.10,10.0,WNW,5.8,-,N/A,,Clear,290,2013-11-06 09:53:00
4:14 AM,28.4,24.8,86,30.10,10.0,WNW,5.8,-,N/A,,Clear,290,2013-11-06 10:14:00
4:34 AM,26.6,23.0,86,30.12,10.0,WNW,5.8,-,N/A,,Clear,290,2013-11-06 10:34:00
4:53 AM,26.6,21.2,80,30.12,10.0,WNW,5.8,-,N/A,,Clear,290,2013-11-06 10:53:00
5:14 AM,28.4,23.0,80,30.12,10.0,WNW,6.9,-,N/A,,Clear,290,2013-11-06 11:14:00
5:34 AM,26.6,21.2,80,30.12,10.0,WNW,6.9,-,N/A,,Clear,300,2013-11-06 11:34:00
5:53 AM,24.8,21.2,86,30.12,10.0,WNW,5.8,-,N/A,,Clear,290,2013-11-06 11:53:00
6:14 AM,24.8,21.2,86,30.12,10.0,WNW,5.8,-,N/A,,Clear,300,2013-11-06 12:14:00
6:34 AM,23.0,19.4,86,30.12,10.0,WNW,5.8,-,N/A,,Clear,290,2013-11-06 12:34:00
6:53 AM,24.8,19.4,80,30.12,10.0,WNW,5.8,-,N/A,,Clear,290,2013-11-06 12:53:00
7:14 AM,24.8,19.4,80,30.12,10.0,WNW,6.9,-,N/A,,Clear,290,2013-11-06 13:14:00
7:33 AM,24.8,21.2,86,30.13,10.0,WNW,5.8,-,N/A,,Clear,290,2013-11-06 13:33:00
7:54 AM,24.8,21.2,86,30.14,10.0,WNW,4.6,-,N/A,,Clear,290,2013-11-06 13:54:00
8:14 AM,28.4,23.0,80,30.13,10.0,WNW,4.6,-,N/A,,Clear,300,2013-11-06 14:14:00
8:33 AM,30.2,24.8,80,30.14,10.0,West,5.8,-,N/A,,Clear,280,2013-11-06 14:33:00
8:54 AM,33.8,26.6,75,30.13,10.0,WNW,5.8,-,N/A,,Clear,290,2013-11-06 14:54:00
9:13 AM,35.6,24.8,65,30.13,10.0,West,6.9,-,N/A,,Clear,280,2013-11-06 15:13:00
9:34 AM,37.4,26.6,65,30.13,10.0,West,6.9,-,N/A,,Clear,280,2013-11-06 15:34:00
9:54 AM,37.4,24.8,60,30.13,10.0,West,4.6,-,N/A,,Clear,260,2013-11-06 15:54:00
10:13 AM,39.2,26.6,61,30.13,10.0,West,6.9,-,N/A,,Clear,270,2013-11-06 16:13:00
10:34 AM,42.8,26.6,53,30.12,10.0,West,6.9,-,N/A,,Clear,260,2013-11-06 16:34:00
10:53 AM,42.8,24.8,49,30.13,10.0,WNW,9.2,-,N/A,,Clear,290,2013-11-06 16:53:00
11:13 AM,44.6,24.8,46,30.13,10.0,WNW,10.4,-,N/A,,Clear,290,2013-11-06 17:13:00
11:34 AM,44.6,24.8,46,30.12,10.0,West,10.4,17.3,N/A,,Clear,270,2013-11-06 17:34:00
11:53 AM,46.4,24.8,43,30.11,10.0,West,6.9,16.1,N/A,,Clear,280,2013-11-06 17:53:00
12:13 PM,46.4,24.8,43,30.11,10.0,West,11.5,-,N/A,,Clear,270,2013-11-06 18:13:00
12:34 PM,46.4,23.0,40,30.09,10.0,WSW,11.5,17.3,N/A,,Clear,240,2013-11-06 18:34:00
12:53 PM,48.2,24.8,40,30.08,10.0,SW,11.5,-,N/A,,Clear,230,2013-11-06 18:53:00
1:13 PM,48.2,23.0,37,30.09,10.0,WSW,8.1,-,N/A,,Clear,250,2013-11-06 19:13:00
1:34 PM,48.2,24.8,40,30.09,10.0,West,13.8,19.6,N/A,,Scattered Clouds,260,2013-11-06 19:34:00
1:53 PM,50.0,24.8,37,30.09,10.0,West,12.7,-,N/A,,Mostly Cloudy,260,2013-11-06 19:53:00
2:13 PM,48.2,24.8,40,30.09,10.0,West,15.0,18.4,N/A,,Overcast,270,2013-11-06 20:13:00
2:33 PM,48.2,23.0,37,30.09,10.0,West,15.0,18.4,N/A,,Mostly Cloudy,260,2013-11-06 20:33:00
2:53 PM,48.2,24.8,40,30.10,10.0,West,12.7,-,N/A,,Mostly Cloudy,270,2013-11-06 20:53:00
3:14 PM,46.4,24.8,43,30.10,10.0,West,13.8,-,N/A,,Mostly Cloudy,260,2013-11-06 21:14:00
3:33 PM,46.4,24.8,43,30.11,10.0,West,13.8,17.3,N/A,,Overcast,260,2013-11-06 21:33:00
3:53 PM,46.4,24.8,43,30.10,10.0,WSW,9.2,-,N/A,,Overcast,240,2013-11-06 21:53:00
4:14 PM,44.6,26.6,49,30.10,10.0,WSW,8.1,-,N/A,,Overcast,250,2013-11-06 22:14:00
4:33 PM,44.6,26.6,49,30.10,10.0,WSW,9.2,-,N/A,,Overcast,250,2013-11-06 22:33:00
4:54 PM,44.6,28.4,53,30.10,10.0,SW,11.5,-,N/A,,Overcast,230,2013-11-06 22:54:00
5:14 PM,42.8,28.4,57,30.10,10.0,WSW,11.5,-,N/A,,Overcast,240,2013-11-06 23:14:00
5:33 PM,42.8,28.4,57,30.11,10.0,SW,10.4,-,N/A,,Overcast,230,2013-11-06 23:33:00
5:54 PM,39.2,28.4,65,30.11,10.0,SW,10.4,-,N/A,,Overcast,220,2013-11-06 23:54:00
6:13 PM,39.2,28.4,65,30.11,10.0,SW,11.5,-,N/A,,Overcast,230,2013-11-07 00:13:00
6:34 PM,37.4,28.4,70,30.13,10.0,West,10.4,-,N/A,,Overcast,260,2013-11-07 00:34:00
6:53 PM,35.6,28.4,75,30.15,10.0,West,10.4,-,N/A,,Overcast,270,2013-11-07 00:53:00
7:13 PM,33.8,28.4,81,30.16,10.0,West,13.8,20.7,N/A,,Mostly Cloudy,270,2013-11-07 01:13:00
7:34 PM,35.6,28.4,75,30.16,10.0,West,13.8,-,N/A,,Mostly Cloudy,270,2013-11-07 01:34:00
7:53 PM,33.8,28.4,81,30.15,10.0,West,11.5,17.3,N/A,,Mostly Cloudy,260,2013-11-07 01:53:00
8:14 PM,33.8,28.4,81,30.15,10.0,WSW,8.1,-,N/A,,Clear,250,2013-11-07 02:14:00
8:34 PM,33.8,28.4,81,30.15,10.0,WSW,5.8,-,N/A,,Clear,240,2013-11-07 02:34:00
8:54 PM,32.0,28.4,87,30.15,10.0,WSW,5.8,-,N/A,,Clear,240,2013-11-07 02:54:00
9:13 PM,30.2,28.4,93,30.16,10.0,WSW,5.8,-,N/A,,Clear,240,2013-11-07 03:13:00
9:33 PM,30.2,26.6,86,30.16,10.0,SW,5.8,-,N/A,,Clear,230,2013-11-07 03:33:00
9:54 PM,30.2,26.6,86,30.17,10.0,SW,4.6,-,N/A,,Scattered Clouds,230,2013-11-07 03:54:00
10:13 PM,30.2,26.6,86,30.17,10.0,SW,4.6,-,N/A,,Clear,230,2013-11-07 04:13:00
10:33 PM,30.2,26.6,86,30.16,10.0,WSW,4.6,-,N/A,,Clear,240,2013-11-07 04:33:00
10:54 PM,28.4,26.6,93,30.16,10.0,West,4.6,-,N/A,,Clear,260,2013-11-07 04:54:00
11:13 PM,28.4,26.6,93,30.17,10.0,West,5.8,-,N/A,,Clear,260,2013-11-07 05:13:00
11:33 PM,28.4,26.6,93,30.17,10.0,West,6.9,-,N/A,,Clear,270,2013-11-07 05:33:00
11:54 PM,28.4,26.6,93,30.17,10.0,West,5.8,-,N/A,,Clear,270,2013-11-07 05:54:00